Brownwood, TX

7:23 PM CDT on June 28, 2017 (GMT -0500)
Brownwood Regional

Weather History for KBWD - June, 2013

Change the Weather History Date:

Wednesday, June 26, 2013

  Actual Average (KABI) Record (KABI)
Temperature  
Mean Temperature 86 °F -  
Max Temperature 98 °F 88 °F 108 °F (1818)
Min Temperature 75 °F 68 °F 58 °F (1974)
Cooling Degree Days 22    
Growing Degree Days 36 (Base 50)    
Moisture  
Dew Point 66 °F    
Average Humidity 51    
Maximum Humidity 78    
Minimum Humidity 30    
Precipitation  
Precipitation 0.00 in - - ()
Sea Level Pressure  
Sea Level Pressure 29.92 in    
Wind  
Wind Speed 12 mph (South)    
Max Wind Speed 18 mph    
Max Gust Speed 24 mph    
Visibility 10 miles    
Events      
Averages and records for this station are not official NWS values.
T = Trace of Precipitation, MM = Missing Value Source: NWS Daily Summary

Daily Weather History Graph

Daily Weather History Graph

Search for Another Location

Airport or City:

Trip Planner

Search our weather history database for the weather conditions in past years. The results will help you decide how hot, cold, wet, or windy it might be!

Date:

Astronomy

Jun. 26, 2013 Rise Set
Actual Time 6:32 AM CDT 8:45 PM CDT
Civil Twilight 6:03 AM CDT 9:13 PM CDT
Nautical Twilight 5:29 AM CDT 9:47 PM CDT
Astronomical Twilight 4:52 AM CDT 10:24 PM CDT
Moon 11:25 PM CDT (6/26) 10:11 AM CDT (6/26)
Length of Visible Light 15h 09m
Length of Day
14h 13m
Waning Gibbous, 85% of the Moon is Illuminated
Jun 26
Waning Gibbous
Jun 29
Last Quarter
Jul 8
New
Jul 15
First Quarter
Jul 22
Full

Hourly Weather History & Observations

Time (CDT) Temp. Heat Index Dew Point Humidity Pressure Visibility Wind Dir Wind Speed Gust Speed Precip Events Conditions
12:15 AM 84.2 °F 85.0 °F 62.6 °F 48% 29.91 in 10.0 mi South 11.5 mph 23.0 mph N/A   Clear
12:35 AM 84.2 °F 85.6 °F 64.4 °F 51% 29.90 in 10.0 mi South 13.8 mph 18.4 mph N/A   Partly Cloudy
12:55 AM 84.2 °F 86.6 °F 66.2 °F 55% 29.90 in 10.0 mi South 13.8 mph 20.7 mph N/A   Clear
1:15 AM 84.2 °F 86.6 °F 66.2 °F 55% 29.89 in 10.0 mi SSE 12.7 mph 24.2 mph N/A   Clear
1:35 AM 82.4 °F 85.4 °F 68.0 °F 62% 29.90 in 10.0 mi South 11.5 mph 17.3 mph N/A   Clear
1:55 AM 82.4 °F 85.4 °F 68.0 °F 62% 29.90 in 10.0 mi South 11.5 mph 20.7 mph N/A   Clear
2:15 AM 82.4 °F 85.4 °F 68.0 °F 62% 29.90 in 10.0 mi South 15.0 mph 21.9 mph N/A   Clear
2:35 AM 80.6 °F 83.2 °F 68.0 °F 65% 29.90 in 10.0 mi South 13.8 mph 18.4 mph N/A   Clear
2:55 AM 80.6 °F 83.2 °F 68.0 °F 65% 29.90 in 10.0 mi South 11.5 mph 18.4 mph N/A   Clear
3:15 AM 80.6 °F 83.2 °F 68.0 °F 65% 29.90 in 10.0 mi South 9.2 mph - N/A   Clear
3:35 AM 78.8 °F - 68.0 °F 69% 29.91 in 10.0 mi South 10.4 mph - N/A   Clear
3:55 AM 78.8 °F - 68.0 °F 69% 29.91 in 10.0 mi South 9.2 mph - N/A   Clear
4:15 AM 77.0 °F - 68.0 °F 74% 29.90 in 10.0 mi South 10.4 mph - N/A   Clear
4:35 AM 77.0 °F - 68.0 °F 74% 29.91 in 10.0 mi South 10.4 mph - N/A   Clear
4:55 AM 77.0 °F - 68.0 °F 74% 29.91 in 10.0 mi South 10.4 mph 16.1 mph N/A   Clear
5:15 AM 77.0 °F - 68.0 °F 74% 29.91 in 10.0 mi South 10.4 mph - N/A   Clear
5:35 AM 75.2 °F - 68.0 °F 78% 29.92 in 10.0 mi South 10.4 mph - N/A   Clear
5:55 AM 75.2 °F - 68.0 °F 78% 29.92 in 10.0 mi South 9.2 mph - N/A   Clear
6:15 AM 75.2 °F - 66.2 °F 73% 29.93 in 10.0 mi South 10.4 mph - N/A   Clear
6:35 AM 75.2 °F - 66.2 °F 73% 29.93 in 8.0 mi South 13.8 mph 18.4 mph N/A   Clear
6:55 AM 75.2 °F - 68.0 °F 78% 29.94 in 8.0 mi South 10.4 mph - N/A   Clear
7:15 AM 75.2 °F - 68.0 °F 78% 29.95 in 9.0 mi South 10.4 mph - N/A   Clear
7:35 AM 75.2 °F - 68.0 °F 78% 29.95 in 8.0 mi South 12.7 mph 18.4 mph N/A   Clear
7:55 AM 77.0 °F - 68.0 °F 74% 29.95 in 8.0 mi South 12.7 mph 19.6 mph N/A   Clear
8:15 AM 77.0 °F - 68.0 °F 74% 29.95 in 8.0 mi South 16.1 mph 21.9 mph N/A   Clear
8:35 AM 77.0 °F - 68.0 °F 74% 29.95 in 10.0 mi South 16.1 mph - N/A   Partly Cloudy
8:55 AM 80.6 °F 83.2 °F 68.0 °F 65% 29.96 in 9.0 mi South 15.0 mph 20.7 mph N/A   Clear
9:15 AM 80.6 °F 83.2 °F 68.0 °F 65% 29.97 in 9.0 mi South 13.8 mph 21.9 mph N/A   Clear
9:35 AM 82.4 °F 85.4 °F 68.0 °F 62% 29.97 in 9.0 mi South 16.1 mph - N/A   Clear
9:55 AM 84.2 °F 87.3 °F 68.0 °F 58% 29.97 in 10.0 mi South 13.8 mph 24.2 mph N/A   Partly Cloudy
10:15 AM 84.2 °F 87.3 °F 68.0 °F 58% 29.97 in 9.0 mi South 16.1 mph 23.0 mph N/A   Partly Cloudy
10:35 AM 86.0 °F 89.4 °F 68.0 °F 55% 29.97 in 9.0 mi South 15.0 mph 21.9 mph N/A   Partly Cloudy
10:55 AM 86.0 °F 89.4 °F 68.0 °F 55% 29.97 in 9.0 mi South 16.1 mph 23.0 mph N/A   Partly Cloudy
11:15 AM 87.8 °F 91.4 °F 68.0 °F 52% 29.97 in 10.0 mi South 18.4 mph 21.9 mph N/A   Clear
11:35 AM 89.6 °F 93.4 °F 68.0 °F 49% 29.97 in 9.0 mi SSW 18.4 mph 23.0 mph N/A   Clear
11:55 AM 89.6 °F 93.4 °F 68.0 °F 49% 29.97 in 10.0 mi South 13.8 mph 20.7 mph N/A   Clear
12:15 PM 89.6 °F 93.4 °F 68.0 °F 49% 29.97 in 10.0 mi SSW 13.8 mph 20.7 mph N/A   Clear
12:35 PM 91.4 °F 95.4 °F 68.0 °F 46% 29.97 in 10.0 mi South 13.8 mph 20.7 mph N/A   Clear
12:55 PM 91.4 °F 95.4 °F 68.0 °F 46% 29.96 in 10.0 mi South 12.7 mph 23.0 mph N/A   Clear
1:15 PM 93.2 °F 97.7 °F 68.0 °F 44% 29.95 in 10.0 mi SSE 15.0 mph 20.7 mph N/A   Clear
1:35 PM 95.0 °F 99.5 °F 68.0 °F 41% 29.94 in 10.0 mi South 17.3 mph - N/A   Clear
1:55 PM 93.2 °F 97.7 °F 68.0 °F 44% 29.94 in 10.0 mi South 11.5 mph 18.4 mph N/A   Clear
2:15 PM 95.0 °F 99.5 °F 68.0 °F 41% 29.93 in 10.0 mi SSE 16.1 mph 20.7 mph N/A   Clear
2:35 PM 95.0 °F 99.5 °F 68.0 °F 41% 29.93 in 10.0 mi SSW 11.5 mph 23.0 mph N/A   Clear
2:55 PM 96.8 °F 101.8 °F 68.0 °F 39% 29.93 in 10.0 mi South 16.1 mph 21.9 mph N/A   Clear
3:15 PM 96.8 °F 100.7 °F 66.2 °F 37% 29.92 in 10.0 mi SSE 13.8 mph 19.6 mph N/A   Clear
3:35 PM 98.6 °F 102.8 °F 66.2 °F 35% 29.91 in 10.0 mi SE 12.7 mph 19.6 mph N/A   Clear
3:55 PM 98.6 °F 102.8 °F 66.2 °F 35% 29.91 in 10.0 mi SSW 11.5 mph 23.0 mph N/A   Clear
4:15 PM 98.6 °F 101.0 °F 64.4 °F 32% 29.90 in 10.0 mi South 13.8 mph 20.7 mph N/A   Clear
4:35 PM 98.6 °F 101.0 °F 64.4 °F 32% 29.90 in 10.0 mi SSE 15.0 mph 19.6 mph N/A   Clear
4:55 PM 98.6 °F 101.0 °F 64.4 °F 32% 29.89 in 10.0 mi South 15.0 mph - N/A   Clear
5:15 PM 98.6 °F 101.0 °F 64.4 °F 32% 29.89 in 10.0 mi SSE 12.7 mph 20.7 mph N/A   Clear
5:35 PM 98.6 °F 100.0 °F 62.6 °F 30% 29.89 in 10.0 mi South 12.7 mph 18.4 mph N/A   Clear
5:55 PM 98.6 °F 101.0 °F 64.4 °F 32% 29.88 in 10.0 mi SSE 17.3 mph 21.9 mph N/A   Clear
6:15 PM 98.6 °F 100.0 °F 62.6 °F 30% 29.88 in 10.0 mi South 10.4 mph 21.9 mph N/A   Clear
6:35 PM 98.6 °F 100.0 °F 62.6 °F 30% 29.88 in 10.0 mi SSE 11.5 mph - N/A   Clear
6:55 PM 98.6 °F 100.0 °F 62.6 °F 30% 29.88 in 10.0 mi SE 15.0 mph 19.6 mph N/A   Clear
7:15 PM 96.8 °F 98.0 °F 62.6 °F 32% 29.87 in 10.0 mi SSE 15.0 mph 20.7 mph N/A   Clear
7:35 PM 96.8 °F 98.0 °F 62.6 °F 32% 29.88 in 10.0 mi SSE 13.8 mph - N/A   Clear
7:55 PM 95.0 °F 96.0 °F 62.6 °F 34% 29.88 in 10.0 mi SSE 12.7 mph 18.4 mph N/A   Clear
8:15 PM 95.0 °F 96.0 °F 62.6 °F 34% 29.88 in 10.0 mi SSE 10.4 mph 18.4 mph N/A   Clear
8:35 PM 93.2 °F 93.3 °F 60.8 °F 34% 29.89 in 10.0 mi SSE 11.5 mph - N/A   Clear
8:55 PM 93.2 °F 93.3 °F 60.8 °F 34% 29.89 in 10.0 mi SE 9.2 mph - N/A   Clear
9:15 PM 91.4 °F 91.4 °F 60.8 °F 36% 29.90 in 10.0 mi SE 10.4 mph - N/A   Clear
9:35 PM 91.4 °F 91.4 °F 60.8 °F 36% 29.91 in 10.0 mi SSE 8.1 mph - N/A   Clear
9:55 PM 89.6 °F 89.5 °F 60.8 °F 38% 29.92 in 10.0 mi SE 8.1 mph - N/A   Clear
10:15 PM 87.8 °F 87.6 °F 60.8 °F 40% 29.93 in 10.0 mi SE 8.1 mph - N/A   Clear
10:35 PM 87.8 °F 87.6 °F 60.8 °F 40% 29.94 in 10.0 mi SSE 8.1 mph - N/A   Clear
10:55 PM 86.0 °F 86.1 °F 60.8 °F 43% 29.94 in 10.0 mi SSE 8.1 mph - N/A   Clear
11:15 PM 86.0 °F 86.6 °F 62.6 °F 45% 29.95 in 10.0 mi SSE 8.1 mph - N/A   Clear
11:35 PM 86.0 °F 86.6 °F 62.6 °F 45% 29.95 in 10.0 mi SSE 9.2 mph - N/A   Clear
11:55 PM 86.0 °F 86.6 °F 62.6 °F 45% 29.95 in 10.0 mi South 9.2 mph - N/A   Clear